Location: Piotrkow Trybunalski
(51.4000°N, 19.6830°E)
Time: 14:56:18
(UTC+01:00)

Vanguard 2 - Pass Details

Date: 08 February 2023
Orbit: 553 x 2927 km, 32.9° (Epoch: 24 March)

Event Time Altitude Azimuth Distance (km) Brightness Sun altitude
Rises 23:15:53 0° 256° (WSW) 5,558 11.9 -52.6°
Enters shadow 23:18:21 - 251° (WSW) 5,074 11.6 -52.7°
Reaches altitude 10° 23:19:35 10° 248° (WSW) 4,850 - -52.7°
Maximum altitude 23:32:13 36° 190° (S) 3,827 - -53.1°
Drops below altitude 10° 23:47:13 10° 133° (SE) 5,731 - -53.4°
Sets 23:52:06 0° 126° (SE) 6,650 - -53.4°
